Hourly Data Report for September 22, 2017

All times are specified in Local Standard Time (LST). Add 1 hour to adjust for Daylight Saving Time where and when it is observed.

BAKER LAKE A
NUNAVUT

64°17'56.000" N
96°04'40.000" W
18.60 m
2300503
71926
YBK

Download Data

Hourly Data (September 2017)
Hourly Data Report for September 22, 2017
Temp Definition
°C
Dew Point Temp Definition
°C
Rel Hum Definition
%
Wind Dir Definition
10's deg

Wind Spd Definition
km/h
Visibility Definition
km
Stn Press Definition
kPa
Hmdx Definition


Wind Chill Definition


Weather Definition


TIME
00:00 Legend Double Dagger 2.8 -0.4 80 36 9 24.1 101.88     Cloudy
01:00 Legend Double Dagger 2.7 -1.2 76 36 5 24.1 101.89     LegendNANA
02:00 Legend Double Dagger 2.4 -1.2 77 33 6 24.1 101.89     LegendNANA
03:00 Legend Double Dagger 2.7 -0.9 77 31 7 24.1 101.91     Cloudy
04:00 Legend Double Dagger 2.5 -0.4 81 29 11 24.1 101.90     LegendNANA
05:00 Legend Double Dagger 2.8 -0.6 78 30 13 24.1 101.91     LegendNANA
06:00 Legend Double Dagger 2.7 -0.4 80 32 10 32.2 101.91     Cloudy
07:00 Legend Double Dagger 3.4 -0.7 75 36 8 32.2 101.93     LegendNANA
08:00 Legend Double Dagger 3.6 -1.5 69 3 8 32.2 101.94     LegendNANA
09:00 Legend Double Dagger 4.3 -2.6 61 5 9 32.2 101.94     Cloudy
10:00 Legend Double Dagger 4.8 -3.8 54 36 13 32.2 101.95     LegendNANA
11:00 Legend Double Dagger 5.5 -3.9 51 2 16 32.2 101.96     LegendNANA
12:00 Legend Double Dagger 5.4 -3.9 51 1 12 32.2 101.96     Mostly Cloudy
13:00 Legend Double Dagger 6.4 -4.0 47 35 17 32.2 101.96     LegendNANA
14:00 Legend Double Dagger 6.6 -4.0 47 1 25 32.2 101.96     LegendNANA
15:00 Legend Double Dagger 6.4 -4.2 47 36 18 32.2 101.99     Mostly Cloudy
16:00 Legend Double Dagger 6.0 -3.6 50 36 23 32.2 102.01     LegendNANA
17:00 Legend Double Dagger 5.1 -4.0 52 35 20 32.2 102.04     LegendNANA
18:00 Legend Double Dagger 2.5 -3.9 63 33 18 32.2 102.06     Mainly Clear
19:00 Legend Double Dagger 1.0 -3.6 72 32 20 32.2 102.10     LegendNANA
20:00 Legend Double Dagger 0.2 -3.4 77 33 21 24.1 102.11     LegendNANA
21:00 Legend Double Dagger -0.8 -3.2 83 33 21 24.1 102.13   -6 Clear
22:00 Legend Double Dagger -1.1 -3.0 87 34 23 24.1 102.10   -7 LegendNANA
23:00 Legend Double Dagger -1.6 -3.5 87 32 22 24.1 102.15   -8 LegendNANA

Notes on Data Quality.

Legend

  • E = Estimated
  • M = Missing
  • NA = Not Available
  • ‡ = Partner data that is not subject to review by the National Climate Archives
Date modified: